Weather Roundup
Issued by NWS Chicago, IL

Home | Current Version | Previous Version | Graphics & Text | Print | Product List | Glossary On
Versions: 1 2 3 4 5 6 7 8 9 10 11 12 13 14 15 16 17 18 19 20 21 22 23 24 25 26 27 28 29 30 31 32 33 34 35 36 37 38 39 40 41 42 43 44 45 46 47 48 49 50
000
NZUS59 KLOT 241210
HRRLOT

CHICAGO AREA WEATHER ROUNDUP
NATIONAL WEATHER SERVICE CHICAGO/ROMEOVILLE IL
700 AM CDT THU JUL 24 2014

NOTE: "FAIR" INDICATES FEW OR NO CLOUDS BELOW 12,000 FEET WITH NO
SIGNIFICANT WEATHER AND/OR OBSTRUCTIONS TO VISIBILITY.

* THESE STATIONS ARE NOT UNDER NWS QUALITY CONTROL. THEY ALSO MAY NOT
  REPORT WEATHER SUCH AS PRECIPITATION OR FOG.

ILZ005-006-012>014-019>023-241300-
NORTHEAST ILLINOIS

CITY           SKY/WX    TMP DP  RH WIND       PRES   REMARKS
OHARE          MOSUNNY   59  50  72 N7        30.17R
6HR MIN TEMP:  57; 6HR MAX TEMP:  59;

MIDWAY         MOSUNNY   63  55  75 N7        30.16R
6HR MIN TEMP:  60; 6HR MAX TEMP:  65;

AURORA         SUNNY     55  51  86 CALM      30.18R
6HR MIN TEMP:  51; 6HR MAX TEMP:  56;

LANSING*       MOSUNNY   64  54  70 NE5       30.16R
JOLIET*        SUNNY     58  52  80 N6        30.18R
WAUKEGAN       SUNNY     57  52  83 N5        30.18R
6HR MIN TEMP:  53; 6HR MAX TEMP:  57;

DUPAGE AIRPORT SUNNY     58  53  84 N7        30.17R
6HR MIN TEMP:  52; 6HR MAX TEMP:  58;

WHEELING       SUNNY     59  53  80 N7        30.19R
6HR MIN TEMP:  56; 6HR MAX TEMP:  59;

KANKAKEE*      SUNNY     60  57  88 N6        30.16R
MORRIS*        SUNNY     56  54  93 CALM      30.16S
LEWIS AIRPORT* SUNNY     58  55  88 NE6       30.17R
NORTHERLY IS     N/A     62  55  77 N7          N/A
$$

WIZ051-052-058>065-066-070>072-241300-
SOUTHEAST WISCONSIN

CITY           SKY/WX    TMP DP  RH WIND       PRES   REMARKS
MILWAUKEE      MOSUNNY   59  51  75 N6        30.20R
6HR MIN TEMP:  55; 6HR MAX TEMP:  59;

KENOSHA*       SUNNY     57  52  83 N6        30.19R
RACINE*        SUNNY     58  53  84 N7        30.21R
BURLINGTON     SUNNY     51  51 100 CALM      30.19S
WAUKESHA       SUNNY     54  52  94 W8        30.21R
WEST BEND      SUNNY     52  48  87 CALM      30.21R
$$

INZ001>003-010>013-019-020-241300-
NORTHWEST INDIANA

CITY           SKY/WX    TMP DP  RH WIND       PRES   REMARKS
GARY*          MOSUNNY   66  55  68 NE14      30.15R
MICHIGAN CITY* NOT AVBL
RENSSELAER*    NOT AVBL
VALPARAISO     MOSUNNY   58  54  86 CALM      30.15R
$$

LMZ740>746-241300-
SOUTHERN LAKE MICHIGAN

STATION/POSITION TIME  SKY/WX   TEMP WIND        PRES    VSBY
                                AIR  DIR/SP/G
                 (UTC)          (F)  (DEG/KT/KT) (MB)    (MI)
HARRISON CRIB    NOT AVBL
BURNHAM HARBOR   1200            63  350/  7/  9   N/A
CALUMET HARBOR   1200            63  360/  6/ 10 1020.0R
BURNS HARBOR     NOT AVBL
MICHIGAN CITY    1200            62   30/ 10/ 11   N/A
$$

ABBREVIATIONS USED IN REMARKS
   TC - TEMPERATURE IN CELSIUS
  WCI - WIND CHILL INDEX
   HX - HEAT INDEX
  VSB - VISIBILITY
$$



USA.gov is the U.S. government's official web portal to all federal, state and local government web resources and services.